When you browse on this site, cookies collect data to enhance your experience and personalize the content and advertising you see.
Visit our Privacy Policy to learn more. By continuing to use the site, you agree to this use of cookies and data.
  • Em Portugal
  • Lista de países
  • Para 7 dias
  • Temperatura da água
  • Mapa do tempo
  • Widgets de tempo
  • user-avatar
    Iniciar Sessão

    Previsão horária em Djelfa

    Hoje, 23 Setembro, Segunda-feira

    Tempo Temperatura Precipitação Vento Pressão Humidade
    00:00 +27°C° 0 mm 6 m/s 668 mmHg 33%
    01:00 +26°C° 0 mm 5 m/s 668 mmHg 37%
    02:00 +25°C° 0 mm 3 m/s 667 mmHg 41%
    03:00 +24°C° 0 mm 2 m/s 667 mmHg 45%
    04:00 +23°C° 0 mm 2 m/s 667 mmHg 49%
    05:00 +22°C° 0 mm 1 m/s 667 mmHg 54%
    06:00 +22°C° 0 mm 1 m/s 667 mmHg 57%
    07:00 +24°C° 0 mm 1 m/s 668 mmHg 52%
    08:00 +25°C° 0 mm 1 m/s 668 mmHg 46%
    09:00 +26°C° 0 mm 1 m/s 669 mmHg 40%
    10:00 +28°C° 0 mm 2 m/s 669 mmHg 35%
    11:00 +30°C° 0 mm 3 m/s 669 mmHg 31%
    12:00 +32°C° 0 mm 4 m/s 670 mmHg 26%
    13:00 +33°C° 0 mm 3 m/s 669 mmHg 25%
    14:00 +33°C° 0 mm 3 m/s 669 mmHg 24%
    15:00 +34°C° 0 mm 3 m/s 669 mmHg 22%
    16:00 +33°C° 0 mm 4 m/s 669 mmHg 26%
    17:00 +30°C° 0 mm 4 m/s 668 mmHg 29%
    18:00 +29°C° 0 mm 4 m/s 668 mmHg 32%
    19:00 +28°C° 0 mm 3 m/s 668 mmHg 35%
    20:00 +27°C° 0 mm 2 m/s 669 mmHg 38%
    21:00 +26°C° 0 mm 1 m/s 669 mmHg 41%
    22:00 +26°C° 0 mm 1 m/s 669 mmHg 42%
    23:00 +25°C° 0 mm 1 m/s 669 mmHg 44%

    Amanhã, 24 Setembro, Terça-feira

    Tempo Temperatura Precipitação Vento Pressão Humidade
    00:00 +25°C° 0 mm 1 m/s 668 mmHg 45%
    01:00 +24°C° 0 mm 1 m/s 668 mmHg 46%
    02:00 +22°C° 0 mm 0 m/s 668 mmHg 47%
    03:00 +21°C° 0 mm 0 m/s 667 mmHg 48%
    04:00 +21°C° 0 mm 0 m/s 667 mmHg 49%
    05:00 +21°C° 0 mm 0 m/s 667 mmHg 50%
    06:00 +20°C° 0 mm 0 m/s 667 mmHg 51%
    07:00 +24°C° 0 mm 1 m/s 668 mmHg 46%
    08:00 +26°C° 0 mm 1 m/s 669 mmHg 40%
    09:00 +28°C° 0 mm 1 m/s 670 mmHg 34%
    10:00 +30°C° 0 mm 2 m/s 670 mmHg 30%
    11:00 +31°C° 0 mm 3 m/s 670 mmHg 27%
    12:00 +33°C° 0 mm 4 m/s 670 mmHg 23%
    13:00 +33°C° 0 mm 4 m/s 669 mmHg 23%
    14:00 +34°C° 0 mm 5 m/s 669 mmHg 23%
    15:00 +34°C° 0 mm 5 m/s 668 mmHg 23%
    16:00 +33°C° 0 mm 5 m/s 668 mmHg 26%
    17:00 +30°C° 0 mm 4 m/s 668 mmHg 29%
    18:00 +29°C° 0 mm 3 m/s 668 mmHg 32%
    19:00 +28°C° 0 mm 3 m/s 668 mmHg 32%
    20:00 +27°C° 0 mm 3 m/s 668 mmHg 33%
    21:00 +26°C° 0 mm 3 m/s 668 mmHg 33%
    22:00 +26°C° 0 mm 2 m/s 668 mmHg 36%
    23:00 +25°C° 0 mm 2 m/s 667 mmHg 38%

    Depois de amanhã, 25 Setembro, Quarta-feira

    Tempo Temperatura Precipitação Vento Pressão Humidade
    00:00 +24°C° 0 mm 1 m/s 667 mmHg 41%
    01:00 +24°C° 0 mm 1 m/s 667 mmHg 42%
    02:00 +23°C° 0 mm 1 m/s 666 mmHg 42%
    03:00 +23°C° 0 mm 1 m/s 666 mmHg 43%
    04:00 +23°C° 0 mm 1 m/s 666 mmHg 42%
    05:00 +23°C° 0 mm 2 m/s 666 mmHg 42%
    06:00 +23°C° 0 mm 2 m/s 666 mmHg 41%
    07:00 +25°C° 0 mm 2 m/s 667 mmHg 36%
    08:00 +27°C° 0 mm 3 m/s 668 mmHg 31%
    09:00 +29°C° 0 mm 4 m/s 669 mmHg 25%
    10:00 +29°C° 0 mm 4 m/s 669 mmHg 23%
    11:00 +30°C° 0 mm 5 m/s 668 mmHg 22%
    12:00 +32°C° 0 mm 5 m/s 668 mmHg 20%
    13:00 +32°C° 0 mm 6 m/s 668 mmHg 20%
    14:00 +33°C° 0 mm 6 m/s 668 mmHg 19%
    15:00 +33°C° 0 mm 6 m/s 667 mmHg 19%
    16:00 +32°C° 0 mm 6 m/s 667 mmHg 22%
    17:00 +29°C° 0 mm 5 m/s 667 mmHg 24%
    18:00 +28°C° 0 mm 5 m/s 667 mmHg 27%
    19:00 +27°C° 0 mm 4 m/s 667 mmHg 28%
    20:00 +26°C° 0 mm 4 m/s 667 mmHg 29%
    21:00 +25°C° 0 mm 3 m/s 668 mmHg 30%
    22:00 +24°C° 0 mm 3 m/s 667 mmHg 31%
    23:00 +24°C° 0 mm 2 m/s 667 mmHg 32%

    26 Setembro, Quinta-feira

    Tempo Temperatura Precipitação Vento Pressão Humidade
    00:00 +23°C° 0 mm 2 m/s 667 mmHg 33%
    01:00 +23°C° 0 mm 1 m/s 667 mmHg 35%
    02:00 +22°C° 0 mm 1 m/s 667 mmHg 36%
    03:00 +22°C° 0 mm 1 m/s 666 mmHg 37%
    04:00 +21°C° 0 mm 1 m/s 666 mmHg 38%
    05:00 +21°C° 0 mm 1 m/s 667 mmHg 38%
    06:00 +21°C° 0 mm 1 m/s 667 mmHg 39%
    07:00 +23°C° 0 mm 1 m/s 667 mmHg 34%
    08:00 +24°C° 0 mm 1 m/s 668 mmHg 29%
    09:00 +26°C° 0 mm 2 m/s 669 mmHg 24%
    10:00 +27°C° 0 mm 2 m/s 669 mmHg 22%
    11:00 +29°C° 0 mm 3 m/s 669 mmHg 20%
    12:00 +30°C° 0 mm 3 m/s 670 mmHg 17%
    13:00 +32°C° 0 mm 4 m/s 669 mmHg 17%
    14:00 +32°C° 0 mm 4 m/s 669 mmHg 17%
    15:00 +32°C° 0 mm 5 m/s 668 mmHg 17%
    16:00 +30°C° 0 mm 4 m/s 668 mmHg 19%
    17:00 +29°C° 0 mm 4 m/s 668 mmHg 20%
    18:00 +28°C° 0 mm 3 m/s 668 mmHg 22%
    19:00 +27°C° 0 mm 3 m/s 668 mmHg 24%
    20:00 +26°C° 0 mm 2 m/s 668 mmHg 25%
    21:00 +25°C° 0 mm 1 m/s 668 mmHg 27%
    22:00 +25°C° 0 mm 1 m/s 668 mmHg 27%
    23:00 +24°C° 0 mm 1 m/s 668 mmHg 28%

    27 Setembro, Sexta-feira

    Tempo Temperatura Precipitação Vento Pressão Humidade
    00:00 +24°C° 0 mm 1 m/s 668 mmHg 29%
    01:00 +24°C° 0 mm 2 m/s 668 mmHg 30%
    02:00 +23°C° 0 mm 2 m/s 668 mmHg 31%
    03:00 +23°C° 0 mm 2 m/s 668 mmHg 32%
    04:00 +23°C° 0 mm 2 m/s 667 mmHg 34%
    05:00 +22°C° 0 mm 1 m/s 667 mmHg 35%
    06:00 +22°C° 0 mm 1 m/s 667 mmHg 37%
    07:00 +24°C° 0 mm 1 m/s 668 mmHg 33%
    08:00 +26°C° 0 mm 1 m/s 669 mmHg 28%
    09:00 +28°C° 0 mm 1 m/s 670 mmHg 23%
    10:00 +29°C° 0 mm 2 m/s 670 mmHg 21%
    11:00 +30°C° 0 mm 3 m/s 670 mmHg 19%
    12:00 +33°C° 0 mm 4 m/s 670 mmHg 16%
    13:00 +33°C° 0 mm 5 m/s 669 mmHg 16%
    14:00 +33°C° 0 mm 5 m/s 669 mmHg 16%
    15:00 +33°C° 0 mm 6 m/s 669 mmHg 16%
    16:00 +32°C° 0 mm 5 m/s 668 mmHg 18%
    17:00 +29°C° 0 mm 4 m/s 668 mmHg 21%
    18:00 +28°C° 0 mm 3 m/s 668 mmHg 23%
    19:00 +27°C° 0 mm 2 m/s 668 mmHg 25%
    20:00 +26°C° 0 mm 1 m/s 668 mmHg 28%
    21:00 +25°C° 0 mm 1 m/s 669 mmHg 30%
    22:00 +25°C° 0 mm 1 m/s 668 mmHg 32%
    23:00 +24°C° 0 mm 1 m/s 668 mmHg 33%

    28 Setembro, Sábado

    Tempo Temperatura Precipitação Vento Pressão Humidade
    00:00 +24°C° 0 mm 1 m/s 668 mmHg 35%
    01:00 +23°C° 0 mm 2 m/s 668 mmHg 39%
    02:00 +23°C° 0 mm 2 m/s 668 mmHg 43%
    03:00 +21°C° 0 mm 2 m/s 667 mmHg 48%
    04:00 +21°C° 0 mm 2 m/s 667 mmHg 48%
    05:00 +21°C° 0 mm 2 m/s 667 mmHg 49%
    06:00 +21°C° 0 mm 1 m/s 667 mmHg 50%
    07:00 +24°C° 0 mm 1 m/s 668 mmHg 43%
    08:00 +26°C° 0 mm 2 m/s 669 mmHg 37%
    09:00 +28°C° 0 mm 2 m/s 670 mmHg 30%
    10:00 +29°C° 0 mm 3 m/s 670 mmHg 28%
    11:00 +30°C° 0 mm 3 m/s 670 mmHg 25%
    12:00 +32°C° 0 mm 4 m/s 670 mmHg 23%
    13:00 +33°C° 0 mm 4 m/s 669 mmHg 22%
    14:00 +33°C° 0 mm 4 m/s 669 mmHg 21%
    15:00 +33°C° 0 mm 4 m/s 668 mmHg 20%
    16:00 +32°C° 0 mm 4 m/s 668 mmHg 22%
    17:00 +30°C° 0 mm 4 m/s 668 mmHg 24%
    18:00 +28°C° 0 mm 4 m/s 667 mmHg 26%
    19:00 +27°C° 0 mm 4 m/s 667 mmHg 31%
    20:00 +25°C° 0 mm 4 m/s 667 mmHg 36%
    21:00 +23°C° 0 mm 4 m/s 667 mmHg 41%
    22:00 +23°C° 0 mm 4 m/s 667 mmHg 41%
    23:00 +23°C° 0 mm 4 m/s 667 mmHg 42%
    Mostrar mais